Location: Burkes Observatory
(44.7598°N, 69.4315°W)
Time: 21:34:31
(UTC-05:00)

Daily predictions for brighter satellites

Satellite Brightness Start Highest point End
(mag) Time Altitude Azimuth Time Altitude Azimuth Time Altitude Azimuth
Meteor 1-18 Rocket 4.2 17:38:38 10° N 17:44:10 62° ENE 17:49:42 10° SSE
Cosmos 2082 Rocket 4.0 17:40:36 10° WSW 17:45:40 32° NW 17:50:46 10° N
FREGAT/IRIS 3.7 17:43:30 10° SE 17:46:09 27° ENE 17:48:49 10° NNE
Cosmos 1536 Rocket 4.3 17:42:39 10° N 17:46:41 32° ENE 17:50:42 10° SE
Cosmos 1818 4.3 17:42:41 10° S 17:47:27 32° ESE 17:52:16 10° NE
Nadezhda 1 Rocket 3.9 17:41:52 10° N 17:47:57 69° E 17:53:59 10° SSE
SL-16 R/B 2.2 17:42:53 10° NNW 17:48:35 72° ENE 17:54:15 10° SSE
DNEPR-1 R/B 3.4 17:45:10 10° NNW 17:49:29 70° NE 17:53:41 10° SE
Cosmos 1484 Rocket 4.2 17:54:40 10° S 17:58:29 45° W 18:02:16 10° NNW
ATLAS CENTAUR R/B 4.0 17:56:01 10° W 17:59:05 18° NW 18:02:01 10° N
SJ-6B 3.1 17:55:27 10° SE 17:59:17 46° ENE 18:03:05 10° N
BREEZE-M DEB (TANK) 3.2 17:58:57 10° W 18:01:24 75° N 18:10:02 12° E
Cosmos 407 Rocket 3.6 17:56:37 10° S 18:01:42 54° ESE 18:06:52 10° NNE
Cosmos 2181 Rocket 4.4 17:55:57 10° N 18:01:47 40° ENE 18:07:39 10° SE
Cosmos 1238 Rocket 3.4 17:59:55 10° NNE 18:02:18 20° ENE 18:04:35 10° SE
DELTA 2 R/B (1) 4.2 17:56:56 10° WSW 18:02:21 50° S 18:07:44 10° ESE
Meteor 1-20 Rocket 4.3 17:57:39 10° S 18:03:24 67° E 18:09:14 10° NNE
Resurs 01 Rocket 2.5 17:59:38 10° SE 18:03:26 29° ENE 18:07:16 10° N
Cosmos 676 Rocket 4.4 17:59:02 10° S 18:03:48 39° ESE 18:08:37 10° NE
Cosmos 1340 3.3 18:01:38 10° N 18:05:07 33° ENE 18:08:35 10° SE
Cosmos 2322 Rocket 2.3 18:00:55 10° NNW 18:06:34 82° WSW 18:12:10 10° SSE
Meteor 1-13 Rocket 4.4 18:07:44 10° N 18:13:05 46° ENE 18:18:28 10° SSE
Meteor 1-28 Rocket 3.7 18:10:15 10° N 18:14:01 65° WNW 18:17:48 10° SSW
COSMO-SKYMED 1 3.5 18:13:57 10° N 18:18:11 51° WNW 18:22:22 10° SSW
BREEZE-M DEB (TANK) 3.2 18:15:47 10° WNW 18:18:28 54° NNE 18:22:56 16° E
Cosmos 2322 4.0 18:13:34 10° NNW 18:19:06 47° ENE 18:24:35 10° SE
Cosmos 1300 Rocket 4.1 18:16:07 10° SSE 18:20:09 36° E 18:24:15 10° NNE
Tiangong 2 2.5 18:17:24 10° W 18:20:12 31° SSW 18:22:34 13° SE
Cosmos 1709 Rocket 4.0 18:17:41 10° S 18:23:50 63° E 18:29:55 10° NNE
Cosmos 1536 3.9 18:20:44 10° SE 18:23:53 23° E 18:27:03 10° NE
SL-19 R/B 4.4 18:19:15 10° SE 18:24:46 57° ENE 18:30:39 10° N
FENGYUN 3A 3.7 18:20:10 10° SSE 18:25:30 63° ENE 18:30:52 10° N
Okean 2 Rocket 4.3 18:21:16 10° SSW 18:25:32 45° WNW 18:29:49 10° N
Resurs 1-3 4.0 18:22:07 10° SE 18:26:14 41° ENE 18:30:22 10° N
Cosmos 1140 Rocket 3.9 18:22:22 10° S 18:27:04 38° ESE 18:31:49 10° NE
Cosmos 1190 Rocket 4.1 18:22:04 10° SSW 18:27:15 80° WNW 18:32:29 10° NNE
Okean 1 3.5 18:23:40 10° NNW 18:27:44 78° W 18:31:47 10° S
BREEZE-M DEB (TANK) 4.2 18:26:40 10° SSW 18:29:12 16° SSE 18:29:41 16° SE
CZ-2D R/B 3.9 18:27:44 17° SE 18:30:07 32° ENE 18:33:33 10° N
Cosmos 1461 3.5 18:26:26 10° NW 18:30:22 54° WSW 18:34:22 10° SSE
COSMOS 2428 3.4 18:26:46 10° N 18:31:56 34° NE 18:34:54 21° ESE
Cosmos 2292 Rocket 4.2 18:27:50 10° S 18:32:51 83° E 18:39:43 10° N
Meteor 2-4 Rocket 4.0 18:27:44 10° N 18:33:04 43° ENE 18:38:14 10° SE
Spot 2 Rocket 3.5 18:31:52 10° SSE 18:36:50 62° ENE 18:41:52 10° N
USA 186 3.9 18:39:35 13° NNE 18:39:35 13° NNE 18:40:06 10° NNE
H-2A R/B 2.7 18:35:50 10° SSE 18:39:26 53° ENE 18:43:06 10° N
Cosmos 614 Rocket 4.4 18:34:58 10° SSE 18:39:36 36° ESE 18:44:14 10° NE
USA 229 DEB 4.3 18:34:12 10° NNW 18:40:53 41° NE 18:44:46 24° E
USA 229 4.3 18:34:18 10° NNW 18:40:58 41° NE 18:44:50 24° E
Cosmos 2237 Rocket 3.8 18:37:36 10° N 18:41:14 17° NE 18:42:02 17° NE
Cosmos 2151 Rocket 4.2 18:39:41 10° SSW 18:44:08 61° W 18:48:39 10° N
Helios 1A 3.3 18:44:51 27° ESE 18:46:35 42° ENE 18:50:31 10° N
SAR-Lupe-4 3.7 18:46:20 33° SE 18:47:31 49° ENE 18:51:00 10° N
Meteor 1-11 Rocket 3.7 18:44:27 10° S 18:50:10 69° E 18:56:03 10° NNE
Okean 1 Rocket 3.1 18:46:28 10° S 18:50:52 59° E 18:55:18 10° NNE
GEOS 3 Rocket 3.5 18:47:09 10° NE 18:52:19 81° SE 18:57:37 10° SW
Envisat 3.8 18:52:52 30° ENE 18:53:13 30° ENE 18:57:36 10° N
Cosmos 1954 Rocket 3.9 18:49:49 10° SSW 18:55:00 87° ESE 19:00:17 10° NNE
HJ-1C 4.2 18:54:10 10° S 18:57:28 51° W 19:00:47 10° NNW
Cosmos 2219 3.7 18:52:23 10° S 18:57:34 36° ESE 18:58:55 32° ENE
Cosmos 2360 Rocket 2.3 18:53:07 10° NNW 18:58:48 80° WSW 19:04:27 10° SSE
USA 215 4.5 18:54:26 14° NE 18:59:07 31° N 19:04:42 10° WNW
Cosmos 2219 Rocket 2.9 18:56:48 10° N 19:01:49 32° NE 19:02:23 32° ENE
ERS-1 Rocket 4.4 19:05:35 22° NE 19:05:35 22° NE 19:08:20 10° N
Helios 1B rocket 3.8 19:07:50 25° SSE 19:07:50 25° SSE 19:09:45 10° S
Okean 1-7 Rocket 3.5 19:02:54 10° N 19:07:28 79° E 19:10:37 20° SSE
SL-16 R/B 4.1 19:09:58 10° N 19:12:20 14° NNE 19:12:20 14° NNE
Cosmos 1633 3.7 19:09:46 10° SSW 19:13:18 44° WNW 19:16:52 10° N
Okean 2 4.5 19:13:19 10° N 19:15:47 32° NNE 19:15:47 32° NNE
Cosmos 1025 Rocket 2.9 19:13:35 10° N 19:17:58 77° E 19:18:32 65° SE
ALOS 3.7 19:16:02 10° SSW 19:20:22 38° W 19:24:44 10° NNW
Spot 1 4.0 19:21:16 41° S 19:22:35 74° WSW 19:26:43 10° NNW
Cosmos 2333 Rocket 2.7 19:21:56 10° NNW 19:27:00 41° NE 19:27:00 41° NE
Intercosmos 24 4.3 19:30:05 10° S 19:34:13 84° W 19:40:10 10° N
NOSS 0 Rocket 4.1 19:29:17 10° NNW 19:35:12 50° NE 19:35:12 50° NE
Cosmos 1741 Rocket 3.9 19:30:06 10° SSW 19:35:20 89° WNW 19:37:55 31° NNE
Cosmos 1980 4.5 19:34:28 10° NNW 19:38:40 37° NNE 19:38:40 37° NNE
Resurs 01 Rocket 3.5 19:36:02 10° SSW 19:39:52 29° W 19:43:44 10° NW
Cosmos 1610 Rocket 4.3 19:35:54 10° S 19:42:07 75° E 19:48:17 10° NNE
Meteor 1-5 Rocket 4.4 19:44:37 10° SSW 19:50:35 76° WNW 19:56:32 10° N
COSMOS 2428 3.7 20:10:59 10° NW 20:16:17 42° WSW 20:16:58 40° SW
Cosmos 2237 Rocket 3.3 20:20:29 10° NNW 20:23:52 37° NNW 20:23:52 37° NNW
Nadezhda 3 Rocket 4.4 20:21:55 10° NNW 20:27:16 58° WNW 20:27:16 58° WNW
USA 229 DEB 4.2 20:25:10 10° NW 20:32:07 56° WSW 20:32:15 56° SW
Envisat 4.5 20:33:04 33° WNW 20:33:04 33° WNW 20:36:49 10° NNW
USA 229 4.2 20:25:16 10° NW 20:32:13 57° WSW 20:32:19 57° WSW
USA 215 4.3 20:41:46 34° N 20:41:46 34° N 20:46:51 10° NW
NOSS 3-1 (A) 4.3 20:37:32 10° NW 20:43:25 57° N 20:43:25 57° N
Cosmos 2219 Rocket 3.7 20:40:38 10° NW 20:44:08 33° WNW 20:44:08 33° WNW
ATLAS 2AS CENTAUR R/B 4.1 20:43:28 10° NNW 20:49:24 33° NNE 20:49:24 33° NNE
SL-16 R/B 4.3 20:52:31 10° NNW 20:54:14 20° NNW 20:54:14 20° NNW
Cosmos 2333 Rocket 4.3 21:06:26 10° NW 21:09:02 24° WNW 21:09:02 24° WNW
